QPF
0.02 0.01 0.01 0.01 0.01 0.01 0.01 0.01 0.00 0.00 0.01 0.01 0.01 0.01 0.01 0.01 0.01 0.01 0.00 0.01 0.01 0.01 0.01 0.01 0.01 0.02 0.01 0.02 0.02 0.03 0.02 0.03 0.04 0.05 0.03 0.04 0.03 0.01 0.01 0.00 0.01 0.00 0.00 0.00
0.02 0.01 0.00 0.00 0.01 0.02 0.03 0.02 0.01 0.01 0.01 0.01 0.01 0.01 0.01 0.02 0.01 0.01 0.01 0.01 0.01 0.01 0.02 0.02 0.02 0.02 0.02 0.02 0.02 0.03 0.03 0.02 0.02 0.02 0.02 0.02 0.03 0.02 0.02 0.01 0.01 0.01 0.00 0.00
0.01 0.01 0.00 0.00 0.00 0.01 0.03 0.02 0.01 0.01 0.02 0.02 0.02 0.01 0.02 0.02 0.02 0.02 0.02 0.01 0.01 0.01 0.02 0.02 0.02 0.01 0.01 0.02 0.02 0.04 0.04 0.04 0.04 0.03 0.03 0.03 0.02 0.02 0.01 0.01 0.01 0.01 0.01 0.01
0.01 0.00 0.00 0.00 0.00 0.00 0.01 0.02 0.02 0.02 0.02 0.03 0.02 0.01 0.01 0.02 0.03 0.03 0.03 0.02 0.01 0.02 0.04 0.02 0.01 0.01 0.01 0.01 0.02 0.03 0.04 0.04 0.05 0.06 0.06 0.04 0.03 0.02 0.01 0.01 0.02 0.02 0.01 0.01
0.02 0.00 0.00 0.00 0.00 0.00 0.01 0.01 0.02 0.02 0.03 0.03 0.02 0.01 0.01 0.02 0.04 0.03 0.02 0.02 0.01 0.01 0.01 0.01 0.01 0.01 0.01 0.01 0.01 0.02 0.03 0.03 0.04 0.04 0.04 0.04 0.04 0.04 0.03 0.02 0.02 0.02 0.02 0.02
0.02 0.01 0.01 0.00 0.00 0.00 0.01 0.01 0.02 0.02 0.02 0.02 0.02 0.02 0.01 0.01 0.02 0.03 0.01 0.01 0.01 0.00 0.00 0.00 0.01 0.01 0.00 0.01 0.01 0.02 0.02 0.03 0.03 0.03 0.03 0.04 0.05 0.05 0.04 0.03 0.03 0.03 0.03 0.02
0.01 0.01 0.01 0.00 0.01 0.01 0.02 0.02 0.02 0.03 0.02 0.01 0.01 0.01 0.01 0.00 0.01 0.02 0.01 0.01 0.00 0.00 0.00 0.00 0.00 0.00 0.00 0.00 0.01 0.01 0.02 0.02 0.03 0.03 0.03 0.03 0.04 0.05 0.04 0.03 0.03 0.03 0.03 0.03
0.01 0.00 0.00 0.00 0.01 0.02 0.02 0.02 0.03 0.02 0.02 0.02 0.01 0.01 0.00 0.01 0.01 0.01 0.02 0.01 0.00 0.00 0.00 0.00 0.00 0.00 0.00 0.00 0.00 0.01 0.01 0.01 0.02 0.03 0.03 0.03 0.02 0.02 0.02 0.02 0.02 0.02 0.02 0.02
0.01 0.00 0.00 0.00 0.01 0.02 0.03 0.02 0.02 0.03 0.02 0.02 0.01 0.01 0.01 0.01 0.01 0.01 0.01 0.01 0.01 0.01 0.00 0.00 0.00 0.00 0.00 0.00 0.00 0.00 0.01 0.01 0.01 0.02 0.03 0.03 0.03 0.02 0.01 0.02 0.01 0.01 0.01 0.01
0.01 0.01 0.00 0.00 0.01 0.02 0.03 0.03 0.02 0.03 0.03 0.02 0.01 0.02 0.02 0.02 0.01 0.01 0.01 0.02 0.02 0.01 0.01 0.01 0.01 0.00 0.00 0.00 0.00 0.01 0.01 0.01 0.01 0.01 0.02 0.02 0.03 0.03 0.03 0.02 0.02 0.01 0.01 0.01
0.01 0.01 0.01 0.00 0.00 0.01 0.02 0.02 0.02 0.03 0.03 0.03 0.02 0.02 0.02 0.02 0.01 0.01 0.00 0.00 0.01 0.01 0.01 0.02 0.03 0.02 0.01 0.00 0.00 0.01 0.01 0.01 0.01 0.01 0.01 0.02 0.03 0.03 0.04 0.03 0.03 0.02 0.02 0.02
0.00 0.01 0.01 0.01 0.01 0.01 0.02 0.03 0.03 0.03 0.03 0.02 0.02 0.02 0.02 0.01 0.01 0.00 0.00 0.00 0.00 0.00 0.01 0.03 0.04 0.03 0.02 0.01 0.00 0.00 0.00 0.00 0.00 0.00 0.01 0.02 0.03 0.03 0.03 0.04 0.04 0.03 0.02 0.02
0.00 0.01 0.01 0.01 0.01 0.01 0.02 0.04 0.04 0.03 0.03 0.02 0.02 0.02 0.02 0.01 0.01 0.00 0.00 0.00 0.00 0.00 0.00 0.01 0.02 0.02 0.02 0.02 0.01 0.00 0.00 0.00 0.00 0.00 0.00 0.01 0.01 0.02 0.02 0.03 0.03 0.03 0.03 0.03
0.01 0.01 0.02 0.01 0.01 0.01 0.01 0.02 0.03 0.02 0.03 0.02 0.02 0.03 0.03 0.01 0.01 0.00 0.00 0.00 0.00 0.00 0.00 0.01 0.02 0.02 0.02 0.02 0.02 0.01 0.01 0.00 0.00 0.00 0.00 0.01 0.01 0.01 0.02 0.02 0.02 0.03 0.03 0.03
0.01 0.01 0.01 0.01 0.01 0.02 0.01 0.01 0.02 0.02 0.02 0.03 0.03 0.02 0.02 0.01 0.01 0.01 0.00 0.00 0.00 0.00 0.00 0.01 0.02 0.03 0.03 0.03 0.03 0.02 0.01 0.01 0.01 0.00 0.01 0.01 0.01 0.01 0.02 0.03 0.03 0.02 0.02 0.03
0.01 0.01 0.02 0.02 0.02 0.02 0.02 0.02 0.02 0.01 0.01 0.02 0.02 0.01 0.01 0.01 0.02 0.02 0.01 0.01 0.01 0.00 0.00 0.01 0.01 0.02 0.02 0.02 0.03 0.03 0.02 0.02 0.01 0.01 0.01 0.01 0.01 0.01 0.01 0.02 0.03 0.03 0.02 0.03
0.01 0.01 0.02 0.03 0.02 0.01 0.02 0.01 0.01 0.01 0.01 0.01 0.01 0.01 0.01 0.01 0.01 0.01 0.01 0.01 0.01 0.01 0.01 0.01 0.02 0.02 0.02 0.01 0.01 0.02 0.03 0.03 0.02 0.02 0.02 0.02 0.02 0.02 0.02 0.02 0.03 0.04 0.04 0.03
0.01 0.01 0.02 0.01 0.01 0.02 0.03 0.01 0.01 0.01 0.01 0.00 0.00 0.00 0.00 0.01 0.01 0.01 0.01 0.01 0.01 0.01 0.01 0.01 0.02 0.02 0.01 0.01 0.01 0.01 0.01 0.02 0.03 0.03 0.03 0.03 0.03 0.03 0.02 0.02 0.02 0.02 0.04 0.05
0.00 0.01 0.01 0.01 0.00 0.01 0.01 0.01 0.01 0.01 0.01 0.01 0.01 0.01 0.00 0.00 0.00 0.01 0.01 0.01 0.01 0.01 0.01 0.01 0.01 0.01 0.01 0.01 0.01 0.01 0.01 0.01 0.02 0.02 0.02 0.03 0.04 0.04 0.03 0.03 0.03 0.02 0.02 0.03
0.01 0.01 0.00 0.00 0.00 0.00 0.01 0.00 0.00 0.01 0.01 0.01 0.01 0.01 0.00 0.00 0.00 0.00 0.01 0.01 0.01 0.01 0.02 0.02 0.01 0.01 0.03 0.02 0.01 0.01 0.01 0.01 0.01 0.02 0.02 0.02 0.03 0.04 0.04 0.04 0.04 0.03 0.02 0.03
0.01 0.01 0.00 0.00 0.00 0.00 0.01 0.00 0.00 0.01 0.01 0.01 0.01 0.01 0.00 0.00 0.00 0.01 0.00 0.01 0.01 0.01 0.01 0.02 0.02 0.02 0.03 0.02 0.01 0.01 0.01 0.01 0.01 0.01 0.01 0.01 0.02 0.02 0.03 0.04 0.04 0.04 0.04 0.03
0.02 0.02 0.01 0.01 0.01 0.01 0.01 0.00 0.01 0.01 0.01 0.01 0.00 0.00 0.00 0.00 0.00 0.00 0.00 0.01 0.01 0.01 0.01 0.01 0.02 0.02 0.03 0.02 0.02 0.02 0.01 0.01 0.01 0.01 0.01 0.01 0.02 0.02 0.03 0.03 0.03 0.03 0.03 0.03
0.02 0.02 0.02 0.02 0.03 0.03 0.01 0.01 0.01 0.01 0.01 0.00 0.00 0.00 0.00 0.00 0.00 0.00 0.00 0.00 0.00 0.00 0.01 0.01 0.01 0.02 0.02 0.03 0.02 0.02 0.02 0.02 0.02 0.01 0.02 0.02 0.03 0.03 0.03 0.03 0.02 0.03 0.03 0.03
0.02 0.01 0.01 0.03 0.03 0.02 0.01 0.01 0.00 0.00 0.00 0.00 0.00 0.00 0.00 0.00 0.00 0.00 0.00 0.00 0.00 0.00 0.00 0.01 0.01 0.02 0.02 0.02 0.02 0.03 0.02 0.02 0.02 0.02 0.01 0.02 0.02 0.02 0.02 0.02 0.02 0.02 0.02 0.02
0.02 0.02 0.02 0.02 0.01 0.01 0.00 0.00 0.00 0.00 0.00 0.00 0.00 0.00 0.00 0.00 0.00 0.00 0.00 0.00 0.00 0.00 0.00 0.01 0.01 0.02 0.02 0.02 0.03 0.03 0.02 0.02 0.02 0.02 0.02 0.02 0.02 0.02 0.02 0.02 0.01 0.01 0.01 0.01
0.01 0.02 0.03 0.03 0.01 0.01 0.00 0.00 0.00 0.00 0.00 0.00 0.01 0.00 0.00 0.00 0.00 0.00 0.00 0.00 0.00 0.00 0.00 0.01 0.01 0.02 0.02 0.03 0.03 0.02 0.01 0.02 0.02 0.03 0.02 0.02 0.01 0.01 0.01 0.01 0.01 0.01 0.01 0.01
MSLP
1012.18 1013.03 1013.75 1014.32 1014.78 1015.15 1015.47 1015.75 1016.00 1016.21 1016.37 1016.45 1016.44 1016.35 1016.21 1016.03 1015.88 1015.78 1015.75 1015.82 1015.96 1016.17 1016.41 1016.67 1016.92 1017.15 1017.38 1017.61 1017.86 1018.14 1018.45 1018.78 1019.13 1019.47 1019.78 1020.05 1020.27 1020.44 1020.58 1020.69 1020.79 1020.90 1021.02 1021.15
1012.66 1013.30 1013.78 1014.14 1014.42 1014.69 1014.97 1015.29 1015.64 1015.96 1016.22 1016.36 1016.37 1016.23 1015.97 1015.66 1015.35 1015.11 1014.98 1014.99 1015.14 1015.38 1015.70 1016.03 1016.35 1016.63 1016.89 1017.13 1017.37 1017.66 1017.99 1018.38 1018.80 1019.24 1019.65 1020.02 1020.31 1020.53 1020.68 1020.79 1020.87 1020.96 1021.08 1021.23
1012.85 1013.28 1013.56 1013.74 1013.91 1014.12 1014.43 1014.83 1015.29 1015.73 1016.08 1016.27 1016.25 1016.02 1015.63 1015.14 1014.65 1014.26 1014.02 1013.97 1014.12 1014.41 1014.80 1015.22 1015.62 1015.97 1016.26 1016.53 1016.79 1017.09 1017.46 1017.90 1018.39 1018.92 1019.43 1019.88 1020.25 1020.52 1020.69 1020.79 1020.86 1020.94 1021.06 1021.23
1012.77 1013.04 1013.16 1013.25 1013.37 1013.60 1013.99 1014.50 1015.09 1015.65 1016.07 1016.26 1016.18 1015.82 1015.25 1014.55 1013.87 1013.29 1012.93 1012.82 1012.95 1013.29 1013.76 1014.28 1014.77 1015.20 1015.55 1015.85 1016.13 1016.45 1016.84 1017.32 1017.87 1018.47 1019.05 1019.59 1020.02 1020.34 1020.54 1020.66 1020.73 1020.81 1020.93 1021.12
1012.48 1012.63 1012.68 1012.74 1012.89 1013.22 1013.74 1014.40 1015.13 1015.78 1016.24 1016.40 1016.21 1015.68 1014.89 1013.96 1013.05 1012.29 1011.80 1011.61 1011.74 1012.12 1012.66 1013.28 1013.86 1014.37 1014.78 1015.12 1015.42 1015.75 1016.15 1016.65 1017.23 1017.86 1018.50 1019.09 1019.58 1019.95 1020.19 1020.34 1020.43 1020.53 1020.67 1020.89
1012.06 1012.14 1012.18 1012.28 1012.54 1013.01 1013.69 1014.52 1015.38 1016.11 1016.57 1016.66 1016.33 1015.60 1014.58 1013.41 1012.28 1011.33 1010.70 1010.45 1010.56 1010.97 1011.59 1012.29 1012.96 1013.54 1014.01 1014.38 1014.69 1015.02 1015.40 1015.89 1016.47 1017.11 1017.78 1018.40 1018.94 1019.35 1019.64 1019.84 1019.98 1020.12 1020.30 1020.56
1011.57 1011.62 1011.69 1011.89 1012.29 1012.93 1013.79 1014.78 1015.74 1016.52 1016.97 1016.96 1016.48 1015.55 1014.31 1012.92 1011.58 1010.47 1009.72 1009.40 1009.50 1009.94 1010.61 1011.38 1012.12 1012.76 1013.27 1013.66 1013.97 1014.27 1014.63 1015.08 1015.63 1016.25 1016.92 1017.56 1018.12 1018.59 1018.94 1019.20 1019.41 1019.61 1019.86 1020.17
1011.07 1011.12 1011.24 1011.55 1012.09 1012.90 1013.92 1015.03 1016.08 1016.88 1017.28 1017.18 1016.55 1015.46 1014.04 1012.47 1010.98 1009.75 1008.91 1008.54 1008.62 1009.07 1009.78 1010.59 1011.38 1012.06 1012.59 1012.98 1013.28 1013.55 1013.86 1014.26 1014.76 1015.35 1015.99 1016.64 1017.23 1017.74 1018.16 1018.50 1018.79 1019.08 1019.41 1019.79
1010.60 1010.64 1010.81 1011.21 1011.87 1012.80 1013.93 1015.13 1016.21 1017.00 1017.36 1017.18 1016.45 1015.25 1013.72 1012.05 1010.47 1009.18 1008.30 1007.90 1007.96 1008.41 1009.12 1009.94 1010.74 1011.43 1011.97 1012.35 1012.63 1012.87 1013.14 1013.49 1013.94 1014.49 1015.11 1015.75 1016.36 1016.92 1017.41 1017.83 1018.22 1018.60 1019.01 1019.46
1010.18 1010.19 1010.39 1010.83 1011.56 1012.56 1013.73 1014.95 1016.02 1016.79 1017.10 1016.87 1016.10 1014.86 1013.30 1011.63 1010.05 1008.76 1007.88 1007.47 1007.52 1007.95 1008.64 1009.43 1010.21 1010.89 1011.40 1011.78 1012.04 1012.26 1012.50 1012.82 1013.23 1013.75 1014.35 1014.98 1015.62 1016.22 1016.77 1017.27 1017.75 1018.22 1018.71 1019.24
1009.82 1009.79 1009.97 1010.41 1011.13 1012.12 1013.26 1014.43 1015.46 1016.17 1016.44 1016.20 1015.44 1014.25 1012.76 1011.18 1009.69 1008.47 1007.63 1007.24 1007.28 1007.67 1008.30 1009.04 1009.76 1010.39 1010.89 1011.25 1011.51 1011.73 1011.97 1012.28 1012.69 1013.20 1013.79 1014.43 1015.08 1015.72 1016.32 1016.90 1017.45 1018.00 1018.55 1019.13
1009.52 1009.44 1009.57 1009.95 1010.61 1011.51 1012.56 1013.62 1014.55 1015.19 1015.43 1015.20 1014.52 1013.44 1012.11 1010.68 1009.35 1008.25 1007.50 1007.14 1007.16 1007.50 1008.05 1008.70 1009.35 1009.92 1010.38 1010.74 1011.02 1011.27 1011.54 1011.88 1012.32 1012.84 1013.44 1014.09 1014.76 1015.43 1016.08 1016.70 1017.31 1017.91 1018.52 1019.13
1009.30 1009.15 1009.21 1009.50 1010.04 1010.80 1011.69 1012.60 1013.40 1013.94 1014.15 1013.96 1013.38 1012.46 1011.33 1010.12 1008.99 1008.06 1007.41 1007.09 1007.09 1007.36 1007.81 1008.36 1008.92 1009.43 1009.87 1010.23 1010.55 1010.86 1011.20 1011.61 1012.10 1012.66 1013.29 1013.96 1014.65 1015.34 1016.01 1016.67 1017.31 1017.94 1018.58 1019.21
1009.14 1008.94 1008.92 1009.10 1009.49 1010.07 1010.76 1011.48 1012.11 1012.54 1012.70 1012.55 1012.08 1011.34 1010.44 1009.46 1008.55 1007.79 1007.26 1006.99 1006.97 1007.17 1007.52 1007.97 1008.44 1008.89 1009.32 1009.71 1010.09 1010.49 1010.93 1011.43 1011.99 1012.62 1013.29 1013.99 1014.70 1015.40 1016.08 1016.75 1017.41 1018.05 1018.70 1019.34
1009.05 1008.81 1008.71 1008.77 1009.00 1009.38 1009.86 1010.35 1010.79 1011.09 1011.18 1011.04 1010.67 1010.10 1009.40 1008.66 1007.96 1007.38 1006.96 1006.74 1006.71 1006.85 1007.11 1007.47 1007.87 1008.29 1008.72 1009.16 1009.63 1010.13 1010.68 1011.29 1011.95 1012.64 1013.37 1014.10 1014.82 1015.53 1016.22 1016.89 1017.55 1018.20 1018.85 1019.48
1009.01 1008.74 1008.58 1008.53 1008.60 1008.77 1009.02 1009.29 1009.51 1009.65 1009.65 1009.49 1009.18 1008.74 1008.23 1007.68 1007.17 1006.74 1006.43 1006.26 1006.24 1006.34 1006.55 1006.84 1007.20 1007.61 1008.07 1008.58 1009.15 1009.77 1010.44 1011.16 1011.92 1012.69 1013.47 1014.23 1014.97 1015.69 1016.38 1017.05 1017.71 1018.35 1018.99 1019.62
1009.00 1008.72 1008.50 1008.35 1008.27 1008.25 1008.27 1008.31 1008.32 1008.27 1008.15 1007.94 1007.64 1007.29 1006.89 1006.50 1006.14 1005.85 1005.64 1005.54 1005.53 1005.62 1005.81 1006.09 1006.45 1006.88 1007.40 1008.00 1008.66 1009.40 1010.20 1011.02 1011.87 1012.71 1013.54 1014.33 1015.09 1015.81 1016.51 1017.18 1017.84 1018.49 1019.13 1019.75
1009.00 1008.71 1008.44 1008.20 1007.99 1007.79 1007.60 1007.41 1007.20 1006.97 1006.70 1006.40 1006.09 1005.76 1005.44 1005.15 1004.91 1004.73 1004.62 1004.58 1004.62 1004.75 1004.96 1005.26 1005.65 1006.15 1006.74 1007.43 1008.21 1009.05 1009.95 1010.87 1011.79 1012.69 1013.56 1014.38 1015.15 1015.89 1016.60 1017.28 1017.95 1018.61 1019.25 1019.86
1009.00 1008.69 1008.38 1008.06 1007.72 1007.37 1007.00 1006.60 1006.19 1005.77 1005.35 1004.95 1004.57 1004.23 1003.95 1003.72 1003.57 1003.47 1003.45 1003.49 1003.61 1003.80 1004.07 1004.43 1004.89 1005.46 1006.14 1006.93 1007.80 1008.74 1009.72 1010.71 1011.69 1012.63 1013.53 1014.37 1015.16 1015.91 1016.63 1017.33 1018.02 1018.69 1019.34 1019.95
1008.99 1008.65 1008.29 1007.90 1007.46 1006.97 1006.45 1005.88 1005.30 1004.72 1004.16 1003.64 1003.19 1002.82 1002.54 1002.35 1002.25 1002.23 1002.29 1002.42 1002.62 1002.89 1003.24 1003.69 1004.23 1004.89 1005.65 1006.52 1007.46 1008.47 1009.51 1010.54 1011.56 1012.53 1013.44 1014.30 1015.12 1015.88 1016.63 1017.35 1018.05 1018.74 1019.39 1020.00
1008.96 1008.59 1008.18 1007.72 1007.20 1006.61 1005.97 1005.27 1004.56 1003.86 1003.18 1002.58 1002.06 1001.66 1001.37 1001.19 1001.13 1001.17 1001.30 1001.50 1001.79 1002.14 1002.58 1003.11 1003.73 1004.46 1005.29 1006.21 1007.21 1008.25 1009.32 1010.38 1011.41 1012.39 1013.32 1014.19 1015.02 1015.81 1016.57 1017.32 1018.04 1018.73 1019.39 1020.00
1008.92 1008.50 1008.04 1007.53 1006.95 1006.30 1005.58 1004.82 1004.02 1003.24 1002.50 1001.84 1001.28 1000.85 1000.55 1000.38 1000.35 1000.43 1000.61 1000.87 1001.22 1001.64 1002.15 1002.74 1003.42 1004.19 1005.06 1006.01 1007.02 1008.07 1009.14 1010.20 1011.23 1012.21 1013.15 1014.03 1014.88 1015.69 1016.47 1017.23 1017.97 1018.67 1019.33 1019.92
1008.84 1008.38 1007.88 1007.34 1006.73 1006.05 1005.32 1004.53 1003.72 1002.91 1002.16 1001.48 1000.90 1000.46 1000.16 1000.00 999.98 1000.08 1000.29 1000.59 1000.97 1001.43 1001.96 1002.58 1003.28 1004.06 1004.93 1005.86 1006.86 1007.89 1008.94 1009.98 1010.99 1011.97 1012.91 1013.81 1014.68 1015.51 1016.31 1017.09 1017.83 1018.54 1019.18 1019.76
1008.70 1008.21 1007.70 1007.15 1006.54 1005.88 1005.17 1004.41 1003.63 1002.86 1002.13 1001.48 1000.93 1000.50 1000.21 1000.06 1000.04 1000.14 1000.34 1000.64 1001.02 1001.47 1001.99 1002.59 1003.26 1004.01 1004.83 1005.73 1006.67 1007.66 1008.67 1009.68 1010.68 1011.66 1012.61 1013.53 1014.41 1015.27 1016.09 1016.88 1017.63 1018.33 1018.96 1019.51
1008.48 1007.98 1007.47 1006.93 1006.36 1005.75 1005.11 1004.42 1003.72 1003.03 1002.37 1001.78 1001.27 1000.88 1000.60 1000.45 1000.42 1000.50 1000.68 1000.93 1001.27 1001.67 1002.13 1002.67 1003.28 1003.96 1004.71 1005.53 1006.42 1007.35 1008.32 1009.30 1010.28 1011.26 1012.22 1013.16 1014.07 1014.96 1015.80 1016.61 1017.36 1018.05 1018.67 1019.21
1008.14 1007.66 1007.17 1006.68 1006.17 1005.63 1005.08 1004.50 1003.90 1003.32 1002.76 1002.24 1001.80 1001.45 1001.19 1001.04 1000.98 1001.02 1001.14 1001.33 1001.59 1001.90 1002.28 1002.73 1003.24 1003.83 1004.50 1005.24 1006.05 1006.92 1007.85 1008.81 1009.79 1010.78 1011.76 1012.73 1013.67 1014.58 1015.45 1016.28 1017.04 1017.73 1018.34 1018.87
Thickness
5735 5719 5710 5716 5722 5722 5718 5712 5709 5715 5728 5722 5713 5712 5717 5723 5722 5719 5718 5718 5718 5720 5723 5723 5723 5722 5720 5719 5718 5715 5713 5711 5710 5707 5704 5702 5700 5699 5699 5699 5698 5697 5696 5694
5713 5709 5721 5728 5727 5723 5717 5708 5707 5714 5724 5719 5710 5709 5716 5720 5720 5721 5718 5716 5717 5716 5716 5717 5717 5716 5715 5713 5713 5711 5710 5708 5707 5705 5703 5701 5698 5696 5696 5695 5695 5694 5693 5692
5707 5715 5727 5723 5716 5712 5710 5705 5705 5705 5712 5714 5706 5698 5707 5715 5719 5720 5719 5718 5716 5715 5712 5712 5712 5711 5710 5709 5708 5708 5707 5705 5704 5702 5700 5698 5695 5692 5691 5690 5690 5690 5689 5688
5709 5719 5719 5713 5709 5708 5698 5712 5711 5706 5693 5686 5696 5676 5695 5705 5707 5711 5712 5711 5711 5713 5711 5709 5708 5707 5706 5706 5706 5704 5703 5702 5701 5699 5696 5693 5689 5686 5686 5686 5686 5686 5686 5685
5702 5712 5709 5704 5707 5710 5704 5714 5709 5704 5692 5683 5686 5676 5685 5699 5697 5702 5707 5708 5709 5709 5708 5705 5705 5704 5704 5703 5702 5701 5699 5698 5697 5696 5693 5690 5687 5685 5684 5684 5683 5682 5682 5682
5705 5714 5712 5709 5714 5714 5710 5703 5697 5686 5678 5666 5680 5672 5676 5688 5697 5702 5705 5706 5706 5705 5704 5702 5701 5701 5699 5698 5697 5696 5695 5694 5693 5692 5690 5688 5685 5683 5681 5680 5678 5677 5677 5677
5690 5699 5708 5711 5701 5703 5697 5676 5659 5658 5651 5658 5680 5674 5676 5696 5705 5706 5704 5702 5702 5701 5699 5696 5695 5694 5693 5692 5691 5690 5689 5688 5688 5687 5686 5685 5683 5681 5679 5677 5675 5673 5672 5671
5669 5672 5694 5701 5696 5688 5686 5674 5652 5644 5645 5655 5673 5669 5681 5700 5705 5706 5704 5701 5698 5696 5695 5693 5692 5690 5689 5688 5686 5685 5684 5683 5683 5682 5681 5681 5680 5678 5676 5674 5673 5671 5669 5668
5666 5669 5694 5701 5702 5694 5681 5671 5671 5654 5654 5650 5658 5670 5684 5695 5695 5695 5695 5693 5691 5691 5691 5689 5689 5687 5685 5683 5682 5681 5679 5678 5677 5677 5676 5676 5675 5673 5672 5671 5669 5668 5666 5665
5674 5665 5681 5693 5695 5692 5687 5676 5658 5649 5641 5638 5651 5659 5663 5677 5682 5686 5686 5686 5686 5687 5686 5686 5684 5683 5682 5680 5679 5677 5675 5673 5672 5672 5670 5670 5669 5668 5667 5666 5664 5663 5663 5661
5674 5660 5666 5675 5673 5671 5673 5669 5658 5645 5642 5634 5634 5650 5677 5677 5680 5681 5682 5684 5683 5683 5682 5681 5680 5679 5678 5676 5674 5672 5670 5668 5666 5666 5664 5663 5663 5662 5661 5660 5659 5658 5658 5656
5667 5652 5647 5660 5676 5682 5675 5667 5656 5641 5638 5636 5631 5645 5681 5680 5680 5680 5679 5680 5680 5679 5678 5677 5676 5674 5672 5670 5668 5666 5665 5663 5661 5660 5658 5657 5656 5655 5654 5653 5653 5653 5652 5651
5663 5646 5634 5641 5653 5666 5666 5667 5661 5649 5638 5630 5628 5644 5674 5674 5673 5674 5675 5674 5674 5673 5672 5670 5669 5667 5666 5664 5663 5661 5659 5658 5656 5655 5652 5650 5650 5648 5647 5647 5646 5646 5645 5644
5662 5643 5635 5633 5640 5651 5654 5659 5659 5647 5632 5631 5635 5645 5659 5662 5662 5665 5667 5668 5668 5667 5665 5663 5660 5660 5659 5658 5657 5655 5654 5652 5651 5648 5646 5643 5642 5641 5640 5640 5639 5638 5638 5636
5651 5639 5642 5645 5652 5653 5652 5653 5654 5648 5643 5635 5641 5644 5651 5655 5657 5659 5661 5662 5662 5660 5659 5657 5655 5654 5653 5651 5651 5650 5648 5647 5645 5642 5639 5637 5636 5634 5633 5632 5631 5630 5630 5629
5639 5634 5637 5638 5647 5646 5645 5648 5650 5649 5648 5643 5643 5643 5655 5657 5656 5654 5654 5655 5655 5654 5654 5652 5650 5648 5646 5645 5645 5643 5642 5641 5639 5635 5632 5631 5628 5626 5624 5623 5622 5621 5621 5620
5627 5625 5621 5619 5632 5635 5627 5640 5644 5644 5646 5646 5639 5644 5651 5650 5650 5649 5649 5650 5649 5649 5648 5646 5644 5642 5640 5640 5639 5637 5636 5634 5631 5628 5625 5622 5620 5617 5616 5615 5614 5612 5611 5611
5621 5617 5609 5609 5617 5609 5629 5646 5647 5643 5644 5646 5645 5647 5647 5648 5649 5648 5649 5647 5645 5645 5643 5641 5639 5637 5636 5634 5632 5631 5629 5626 5623 5619 5617 5614 5612 5609 5607 5606 5604 5603 5602 5601
5623 5615 5603 5599 5600 5609 5628 5640 5641 5635 5633 5641 5640 5642 5643 5645 5643 5641 5644 5644 5643 5642 5640 5637 5635 5632 5630 5627 5625 5623 5620 5617 5614 5612 5609 5607 5604 5601 5599 5597 5596 5595 5594 5592
5617 5612 5601 5595 5596 5597 5618 5638 5644 5636 5622 5636 5637 5636 5635 5634 5623 5629 5640 5639 5638 5636 5634 5632 5629 5626 5623 5621 5619 5615 5612 5609 5607 5605 5603 5600 5598 5594 5592 5590 5588 5587 5585 5584
5599 5596 5592 5589 5590 5601 5620 5633 5634 5613 5615 5631 5632 5631 5629 5624 5624 5630 5634 5633 5632 5630 5628 5626 5622 5619 5616 5614 5612 5608 5605 5603 5601 5599 5596 5593 5591 5588 5585 5582 5580 5579 5577 5575
5589 5585 5583 5582 5582 5594 5619 5621 5615 5614 5623 5625 5626 5625 5623 5622 5625 5626 5625 5625 5624 5622 5620 5618 5614 5611 5609 5608 5605 5601 5598 5597 5594 5591 5588 5585 5583 5582 5579 5575 5572 5570 5568 5565
5585 5586 5585 5586 5591 5603 5610 5613 5617 5618 5616 5618 5618 5620 5619 5618 5617 5618 5617 5616 5616 5614 5612 5610 5607 5604 5602 5600 5599 5595 5592 5590 5587 5583 5580 5577 5575 5573 5570 5567 5564 5561 5559 5557
5583 5587 5584 5584 5592 5598 5604 5607 5610 5611 5610 5612 5613 5614 5614 5611 5610 5609 5609 5608 5607 5606 5604 5602 5599 5596 5594 5593 5592 5590 5587 5583 5580 5576 5572 5569 5567 5564 5562 5560 5558 5555 5552 5550
5576 5578 5574 5576 5584 5589 5596 5599 5602 5604 5605 5606 5606 5607 5606 5605 5603 5602 5601 5600 5600 5599 5597 5596 5593 5591 5588 5587 5585 5583 5580 5576 5572 5568 5565 5562 5560 5557 5554 5552 5550 5549 5548 5546
5571 5571 5568 5570 5579 5578 5584 5592 5596 5596 5597 5597 5597 5597 5598 5597 5596 5596 5594 5593 5593 5592 5591 5589 5587 5585 5583 5581 5578 5576 5573 5570 5566 5561 5558 5555 5552 5550 5547 5544 5542 5542 5541 5540